This demonstration page uses our WeatherBlox Daily Observations layout. Learn more.

Left ArrowRight Arrow

Hourly Observations for June 23, 2019

Temp ( °F °C ) Dew Point ( °F °C ) Humidity (%) Winds ( mph kmh ) Pressure ( in mb ) Visibility ( mi km ) Precip ( " mm )
12:53 am 00:53 Clear 62 16.7 61 16.1 96 96 N N/A 30.09 1019 9 14 N/A
1:53 am 01:53 Clear 61 16.1 59 15 93 93 N N/A 30.07 1018 8 13 N/A
2:53 am 02:53 Clear 61 16.1 60 15.6 97 97 N N/A 30.08 1019 8 13 N/A
3:53 am 03:53 Clear 60 15.6 59 15 96 96 N N/A 30.08 1019 8 13 N/A
4:53 am 04:53 Clear 60 15.6 59 15 96 96 ENE 3 6 30.07 1018 8 13 N/A
5:53 am 05:53 Clear 59 15 58 14.4 96 96 N N/A 30.05 1018 9 14 N/A
6:53 am 06:53 Sunny 60 15.6 59 15 96 96 N N/A 30.06 1018 8 13 N/A
7:53 am 07:53 Sunny 66 18.9 60 15.6 81 81 E 5 7 30.06 1018 10 16 N/A
8:53 am 08:53 Sunny 70 21.1 62 16.7 76 76 N N/A 30.06 1018 10 16 N/A
9:53 am 09:53 Sunny 72 22.2 59 15 64 64 N N/A 30.04 1017 10 16 N/A
10:53 am 10:53 Sunny 75 23.9 57 13.9 54 54 ESE 7 11 29.99 1016 10 16 N/A
11:53 am 11:53 Sunny 75 23.9 59 15 58 58 VRB 5 7 30.01 1016 10 16 N/A
12:53 pm 12:53 Sunny 77 25 63 17.2 62 62 VRB 6 9 30.00 1016 10 16 N/A
1:53 pm 13:53 Mostly Sunny 80 26.7 65 18.3 60 60 VRB 5 7 29.98 1015 10 16 N/A
2:53 pm 14:53 Sunny 81 27.2 68 20 65 65 SSW 7 11 29.97 1015 10 16 N/A
3:53 pm 15:53 Partly Cloudy 81 27.2 68 20 65 65 VRB 7 11 29.94 1014 10 16 N/A
4:53 pm 16:53 Partly Cloudy 83 28.3 70 21.1 65 65 VRB 5 7 29.91 1013 10 16 N/A
5:48 pm 17:48 Cloudy with Nearby Thunderstorms 79 26 73 23 84 84 WSW 6 9 29.89 1012 3 4 0.02 0.51
5:53 pm 17:53 Cloudy with Nearby Thunderstorms 76 24.4 72 22.2 88 88 WSW 25 41 29.93 1014 1 2 0.05 1.27
6:05 pm 18:05 Cloudy with Heavy Thunderstorms 69 20.6 68 20 96 96 SW 10 17 29.93 1014 1 1 0.27 6.86
6:19 pm 18:19 Cloudy with Thunderstorms 69 20.6 67 19.4 93 93 NW 5 7 29.92 1013 2 3 0.44 11.18
6:21 pm 18:21 Cloudy with Light Thunderstorms 69 20.6 67 19.4 93 93 NW 5 7 29.93 1014 3 5 0.44 11.18
6:32 pm 18:32 Cloudy with Light Rain 70 21.1 68 20 93 93 W 6 9 29.93 1014 9 14 0.45 11.43
6:39 pm 18:39 Mostly Cloudy with Nearby Thunderstorms 69 20.6 68 20 96 96 SE 3 6 29.92 1013 10 16 0.45 11.43
6:48 pm 18:48 Cloudy with Light Rain 70 21 68 20 94 94 N N/A 29.92 1013 10 16 0.45 11.43
6:53 pm 18:53 Cloudy with Light Rain 70 21.1 68 20 93 93 N N/A 29.93 1014 10 16 0.45 11.43
7:53 pm 19:53 Partly Cloudy with Light Rain 69 20.6 67 19.4 93 93 N N/A 29.90 1012 10 16 N/A
8:53 pm 20:53 Mostly Sunny 69 20.6 67 19.4 93 93 ESE 3 6 29.85 1011 10 16 0.01 0.25
9:53 pm 21:53 Clear 68 20 67 19.4 96 96 VRB 3 6 29.85 1011 10 16 N/A
10:19 pm 22:19 Partly Cloudy 69 20.6 67 19.4 93 93 VRB 3 6 29.86 1011 10 16 N/A
10:28 pm 22:28 Mostly Cloudy 69 20.6 67 19.4 93 93 VRB 5 7 29.86 1011 10 16 N/A
10:53 pm 22:53 Cloudy 69 20.6 68 20 96 96 VRB 3 6 29.85 1011 10 16 N/A
11:17 pm 23:17 Mostly Cloudy 69 20.6 68 20 96 96 E 3 6 29.84 1011 10 16 N/A
11:53 pm 23:53 Partly Cloudy 69 20.6 67 19.4 93 93 VRB 5 7 29.85 1011 10 16 N/A

Powered by AerisWeather